Weather reports worldwide

Advertisment
Niort, France (7330): temperature & dewpoint: 10.09.2019 05:00:00 - 16.09.2019 05:00:00 (CEST)Niort, France (7330): temperature 5cm: 10.09.2019 05:00:00 - 16.09.2019 05:00:00 (CEST)Niort, France (7330): temperature -20cm & temperature -100cm: 10.09.2019 05:00:00 - 16.09.2019 05:00:00 (CEST)Niort, France (7330): wind speed & gusts: 10.09.2019 05:00:00 - 16.09.2019 05:00:00 (CEST)Niort, France (7330): wind direction: 10.09.2019 05:00:00 - 16.09.2019 05:00:00 (CEST)Niort, France (7330): reduced air pressure: 10.09.2019 05:00:00 - 16.09.2019 05:00:00 (CEST)Niort, France (7330): visibility: 10.09.2019 05:00:00 - 16.09.2019 05:00:00 (CEST)Niort, France (7330): sunshine duration: 10.09.2019 05:00:00 - 16.09.2019 05:00:00 (CEST)Niort, France (7330): precipitation: 10.09.2019 05:00:00 - 16.09.2019 05:00:00 (CEST)
Date & Time tt [°C] td [°C] tt 5cm [°C] tt -20cm [°C] tt -100cm [°C] ff [km/h] ff [kn] fx [km/h] fx [kn] dd ppp [hPa] vv [km] sd [min] rr [mm]
16.09.2019 05:00:00 - - - - - - - - - - - - - -
16.09.2019 04:00:00 20,2 10,9 17,8 19,9 19,1 5 3 16 8 NE 1020,4 20 0 0,0
16.09.2019 03:00:00 21,2 10,9 19,7 19,8 19,1 10 6 20 11 NE 1020,5 20 0 0,0
16.09.2019 02:00:00 21,6 11,0 20,2 19,8 19,1 11 6 19 10 NE 1020,5 20 0 0,0
16.09.2019 01:00:00 22,3 11,4 21,0 19,8 19,0 11 6 20 11 NE 1020,7 20 0 0,0
16.09.2019 00:00:00 23,0 12,0 21,3 19,8 19,0 11 6 20 11 NE 1020,9 20 0 0,0
15.09.2019 23:00:00 23,7 12,7 21,9 19,7 19,0 9 5 15 8 NE 1020,9 20 0 0,0
15.09.2019 22:00:00 24,9 13,1 23,0 19,8 19,0 8 5 14 8 NE 1020,7 20 0 0,0
15.09.2019 21:00:00 26,4 13,2 24,4 19,8 19,0 9 5 16 8 NNE 1020,2 20 0 0,0
15.09.2019 20:00:00 28,9 13,2 27,8 19,7 19,0 10 6 22 12 NNE 1019,9 20 51 0,0
15.09.2019 19:00:00 30,9 13,2 32,2 19,7 19,0 12 7 22 12 NE 1019,7 20 60 0,0
15.09.2019 18:00:00 31,7 13,0 35,6 19,7 19,0 11 6 25 14 NE 1019,9 20 60 0,0
15.09.2019 17:00:00 32,1 13,3 37,4 19,7 19,0 11 6 24 13 ENE 1020,3 19 60 0,0
15.09.2019 16:00:00 31,9 14,1 37,6 19,7 19,0 12 6 22 12 ENE 1021,0 20 60 0,0
15.09.2019 15:00:00 31,4 13,6 37,4 19,7 19,0 11 6 29 16 ESE 1021,7 18 60 0,0
15.09.2019 14:00:00 30,7 14,8 35,8 19,7 19,0 14 8 29 16 ENE 1022,2 20 60 0,0
15.09.2019 13:00:00 29,7 15,0 33,0 19,7 19,0 19 10 33 18 ENE 1022,9 20 60 0,0
15.09.2019 12:00:00 27,9 15,5 27,2 19,7 19,0 14 8 23 13 ENE 1023,5 20 60 0,0
15.09.2019 11:00:00 24,6 14,7 23,5 19,7 19,0 13 7 18 10 NE 1023,8 20 60 0,0
15.09.2019 10:00:00 21,6 14,0 19,6 19,7 19,0 12 7 19 10 NE 1024,0 20 60 0,0
15.09.2019 09:00:00 18,9 13,5 13,9 19,6 19,0 13 7 21 11 NE 1023,6 20 53 0,0
15.09.2019 08:00:00 16,6 12,5 13,6 19,6 19,0 4 2 13 7 ENE 1023,7 20 0 0,0
15.09.2019 07:00:00 17,7 12,8 15,4 19,6 19,0 8 4 18 10 ENE 1023,4 20 0 0,0
15.09.2019 06:00:00 18,5 13,4 17,4 19,6 19,0 15 8 22 12 NE 1023,1 20 0 0,0
15.09.2019 05:00:00 18,8 13,4 16,5 19,6 19,0 15 8 20 11 NE 1023,4 20 0 0,0
15.09.2019 04:00:00 18,1 13,4 14,2 19,6 19,0 9 5 14 8 NE 1023,8 20 0 0,0
15.09.2019 03:00:00 20,1 13,8 18,6 19,6 19,0 10 6 20 11 NE 1024,2 20 0 0,0
15.09.2019 02:00:00 20,4 14,1 17,1 19,5 19,0 13 7 17 9 NE 1024,3 20 0 0,0
15.09.2019 01:00:00 20,3 14,0 18,7 19,5 19,0 9 5 15 8 NE 1024,3 20 0 0,0
15.09.2019 00:00:00 21,3 14,2 19,9 19,5 19,0 11 6 16 8 NE 1024,5 20 0 0,0
14.09.2019 23:00:00 22,6 14,2 20,9 19,5 19,0 11 6 16 9 NE 1024,9 20 0 0,0
14.09.2019 22:00:00 24,4 14,5 22,1 19,5 19,0 12 6 19 11 E 1025,2 20 0 0,0
14.09.2019 21:00:00 25,8 14,6 24,2 19,5 19,0 14 8 23 12 NE 1024,7 15 0 0,0
14.09.2019 20:00:00 27,7 14,7 27,1 19,4 19,0 13 7 23 12 NE 1024,0 20 53 0,0
14.09.2019 19:00:00 30,1 14,6 31,4 19,5 19,0 16 9 30 16 ENE 1024,0 20 60 0,0
14.09.2019 18:00:00 30,8 14,4 34,0 19,5 19,0 15 8 24 13 NE 1023,8 20 60 0,0
14.09.2019 17:00:00 31,0 14,6 35,9 19,5 19,0 12 6 26 14 ENE 1024,1 20 58 0,0
14.09.2019 16:00:00 30,0 14,5 33,3 19,5 19,0 13 7 24 13 E 1024,6 20 44 0,0
14.09.2019 15:00:00 30,1 14,2 34,3 19,4 19,0 16 9 28 15 E 1025,1 20 47 0,0
14.09.2019 14:00:00 28,6 15,5 33,3 19,4 19,0 14 8 27 15 E 1025,7 20 60 0,0
14.09.2019 13:00:00 26,5 15,2 29,1 19,4 19,0 14 8 29 16 ENE 1026,4 20 53 0,0
14.09.2019 12:00:00 24,6 15,2 25,3 19,4 19,0 20 11 32 17 NE 1026,8 20 60 0,0
14.09.2019 11:00:00 21,8 14,7 20,8 19,4 19,0 19 11 35 19 ENE 1027,0 20 48 0,0
14.09.2019 10:00:00 19,5 14,3 18,6 19,4 19,0 21 12 36 19 NE 1027,3 20 14 0,0
14.09.2019 09:00:00 18,3 14,0 17,6 19,3 19,0 21 11 32 18 ENE 1027,4 20 0 0,0
14.09.2019 08:00:00 18,1 14,0 17,4 19,4 19,0 22 12 37 20 NE 1026,9 20 0 0,0
14.09.2019 07:00:00 18,2 13,9 17,6 19,3 19,0 24 13 36 19 NE 1026,8 20 0 0,0
14.09.2019 06:00:00 18,6 13,9 17,9 19,3 19,0 23 12 39 21 NE 1026,5 20 0 0,0
14.09.2019 05:00:00 18,8 13,6 17,9 19,3 19,0 18 10 30 16 NE 1026,9 20 0 0,0
14.09.2019 04:00:00 19,5 13,7 18,7 19,3 19,0 22 12 34 18 NE 1027,0 20 0 0,0
14.09.2019 03:00:00 20,4 13,8 19,4 19,3 19,0 20 11 31 17 NE 1027,4 20 0 0,0
14.09.2019 02:00:00 21,1 14,0 19,9 19,2 19,0 19 10 37 20 ENE 1027,7 20 0 0,0
14.09.2019 01:00:00 22,1 14,2 21,0 19,2 19,0 22 12 40 21 NE 1027,5 20 0 0,0
14.09.2019 00:00:00 23,0 14,6 21,8 19,2 19,0 22 12 34 18 NE 1027,4 20 0 0,0
13.09.2019 23:00:00 23,5 14,5 22,3 19,2 19,0 17 9 32 17 NE 1027,5 20 0 -
13.09.2019 22:00:00 24,3 14,7 23,1 19,2 19,0 16 8 26 14 NE 1027,6 20 0 0,0
13.09.2019 21:00:00 25,4 14,5 24,0 19,2 19,0 12 7 26 14 NNE 1027,2 20 0 0,0
13.09.2019 20:00:00 27,7 14,3 27,1 19,2 19,0 17 9 31 17 NNE 1027,1 20 55 0,0
13.09.2019 19:00:00 29,2 13,8 30,0 19,2 19,0 21 11 37 20 NE 1027,5 20 60 0,0
13.09.2019 18:00:00 29,9 14,0 33,1 19,1 19,0 19 10 37 20 NE 1027,3 20 60 0,0
13.09.2019 17:00:00 29,9 14,0 34,1 19,2 19,0 21 11 38 20 NNE 1027,4 20 60 0,0
13.09.2019 16:00:00 29,2 13,8 33,9 19,2 19,1 22 12 35 19 NE 1028,2 20 60 0,0
13.09.2019 15:00:00 28,3 14,5 32,8 19,2 19,0 21 11 38 20 NNE 1028,9 20 60 0,0
13.09.2019 14:00:00 27,4 14,8 30,5 19,2 19,0 18 10 35 19 NE 1029,6 20 60 0,0
13.09.2019 13:00:00 26,3 15,4 28,1 19,2 19,1 19 10 32 17 NE 1029,7 20 60 0,0
13.09.2019 12:00:00 24,4 15,9 24,9 19,1 19,0 17 9 27 15 NNE 1030,2 20 60 0,0
13.09.2019 11:00:00 23,2 16,0 22,1 19,2 19,0 14 8 29 16 NNE 1030,9 20 60 0,0
13.09.2019 10:00:00 20,5 15,7 18,3 19,1 19,0 16 8 27 15 NE 1031,0 20 60 0,0
13.09.2019 09:00:00 17,8 15,1 14,9 19,1 19,0 11 6 16 9 NE 1031,1 20 60 0,0
13.09.2019 08:00:00 15,7 14,1 14,5 19,1 19,1 6 4 15 8 NE 1031,1 20 2 0,0
13.09.2019 07:00:00 15,7 13,9 12,6 19,1 19,1 9 5 13 7 NE 1031,0 20 0 0,0
13.09.2019 06:00:00 15,7 13,4 12,7 19,1 19,1 4 2 14 8 ENE 1030,9 20 0 0,0
13.09.2019 05:00:00 16,9 14,4 15,4 19,1 19,1 9 5 21 11 NE 1030,8 20 0 0,0
13.09.2019 04:00:00 16,5 14,1 13,6 19,0 19,0 10 5 16 9 NE 1031,1 20 0 0,0
13.09.2019 03:00:00 16,3 13,2 12,3 19,0 19,1 6 3 9 5 NNE 1031,6 20 0 0,0
13.09.2019 02:00:00 17,0 13,3 14,2 19,0 19,1 5 3 10 6 NNE 1031,3 20 0 0,0
13.09.2019 01:00:00 17,6 13,7 14,1 19,0 19,1 5 3 10 6 N 1031,2 20 0 0,0
13.09.2019 00:00:00 18,1 13,6 16,2 19,0 19,1 6 4 11 6 NNE 1031,2 20 0 0,0
12.09.2019 23:00:00 19,4 14,0 16,3 19,0 19,1 8 5 12 6 N 1031,3 20 0 0,0
12.09.2019 22:00:00 20,5 14,4 15,7 19,0 19,1 6 3 9 5 NW 1031,2 20 0 0,0
12.09.2019 21:00:00 22,5 13,8 18,7 19,0 19,1 5 3 9 5 NNE 1030,8 20 0 0,0
12.09.2019 20:00:00 24,6 14,1 24,2 19,0 19,1 6 3 13 7 NNE 1030,3 20 57 0,0
12.09.2019 19:00:00 25,8 14,3 26,9 19,0 19,1 4 2 15 8 NNE 1030,4 20 60 0,0
12.09.2019 18:00:00 26,2 14,6 29,9 19,0 19,1 9 5 18 10 N 1030,7 20 60 0,0
12.09.2019 17:00:00 26,0 14,1 31,2 19,0 19,1 9 5 19 10 NNW 1031,0 20 60 0,0
12.09.2019 16:00:00 25,1 13,9 31,4 19,0 19,1 6 4 16 9 NNW 1031,7 20 60 0,0
12.09.2019 15:00:00 24,2 13,7 29,9 19,0 19,1 5 3 16 9 NNW 1032,2 20 60 0,0
12.09.2019 14:00:00 23,0 13,7 25,5 19,0 19,1 5 3 19 10 W 1032,8 20 57 0,0
12.09.2019 13:00:00 21,4 14,5 24,6 19,1 19,1 5 3 14 7 WSW 1033,1 20 60 0,0
12.09.2019 12:00:00 18,8 15,5 18,8 19,0 19,1 3 2 9 5 SSE 1033,3 19 57 0,0
12.09.2019 11:00:00 14,8 14,3 15,3 19,0 19,1 2 1 9 5 N 1033,2 10 7 0,0
12.09.2019 10:00:00 13,7 13,2 13,9 19,1 19,1 4 2 10 5 NNE 1032,7 0,4 0 0,0
12.09.2019 09:00:00 12,9 12,4 11,6 19,1 19,1 4 2 7 4 NNE 1032,1 0,3 0 0,0
12.09.2019 08:00:00 11,6 11,0 8,8 19,0 19,1 0 0 7 4 N 1031,4 0,1 0 0,0
12.09.2019 07:00:00 10,7 10,1 8,5 19,0 19,1 0 0 9 5 N 1030,8 0,1 0 0,0
12.09.2019 06:00:00 11,2 10,6 6,7 19,1 19,2 4 2 7 4 NNW 1030,8 0,1 0 0,0
12.09.2019 05:00:00 9,8 8,4 6,7 19,0 19,1 2 1 4 2 NNW 1031,0 13 0 0,0
12.09.2019 04:00:00 10,9 9,2 7,3 19,0 19,2 3 2 6 3 WNW 1030,9 13 0 0,0
12.09.2019 03:00:00 12,3 10,9 8,0 19,0 19,2 4 2 5 3 NW 1030,9 20 0 0,0
12.09.2019 02:00:00 12,6 10,0 8,4 19,0 19,2 3 2 6 4 NW 1030,6 20 0 0,0
12.09.2019 01:00:00 14,0 10,6 10,5 19,0 19,2 4 2 11 6 NW 1030,2 20 0 0,0
12.09.2019 00:00:00 14,8 10,0 12,6 19,0 19,2 8 4 13 7 WNW 1030,2 20 0 0,0
11.09.2019 23:00:00 15,9 8,4 14,3 19,0 19,2 10 6 16 8 WNW 1029,7 20 0 0,0
11.09.2019 22:00:00 17,0 8,4 14,6 19,0 19,2 10 5 21 11 WNW 1029,1 20 0 0,0
11.09.2019 21:00:00 18,0 9,6 16,6 19,0 19,2 12 7 23 12 W 1028,6 20 0 0,0
11.09.2019 20:00:00 20,2 11,1 19,4 19,0 19,2 15 8 29 16 W 1027,8 20 51 0,0
11.09.2019 19:00:00 22,3 12,5 23,5 19,0 19,2 20 11 29 15 W 1027,5 20 60 0,0
11.09.2019 18:00:00 23,8 9,8 27,4 19,0 19,2 16 8 29 16 W 1027,0 20 60 0,0
11.09.2019 17:00:00 24,1 9,7 28,7 19,0 19,2 15 8 29 16 W 1026,9 20 60 0,0
11.09.2019 16:00:00 23,9 10,2 27,7 19,1 19,2 13 7 27 15 W 1026,9 20 56 0,0
11.09.2019 15:00:00 23,5 9,5 27,2 19,1 19,3 9 5 23 13 WNW 1027,1 20 57 0,0
11.09.2019 14:00:00 22,4 9,9 27,3 19,1 19,3 13 7 22 12 W 1027,5 20 54 0,0
11.09.2019 13:00:00 22,0 8,8 23,9 19,1 19,2 10 5 16 9 WNW 1027,2 20 57 0,0
11.09.2019 12:00:00 19,9 10,3 20,1 19,1 19,3 4 2 10 5 NW 1027,4 20 32 0,0
11.09.2019 11:00:00 17,8 10,4 18,9 19,1 19,3 6 3 15 8 NE 1027,3 20 27 0,0
11.09.2019 10:00:00 16,0 11,0 13,8 19,1 19,3 8 4 13 7 NE 1026,7 19 39 0,0
11.09.2019 09:00:00 13,4 10,2 10,3 19,1 19,3 8 5 11 6 NE 1026,2 20 51 0,0
11.09.2019 08:00:00 11,6 9,5 7,3 19,1 19,3 4 2 7 4 N 1025,4 20 4 0,0
11.09.2019 07:00:00 10,9 8,5 6,8 19,1 19,3 0 0 12 6 N 1024,6 20 0 0,0
11.09.2019 06:00:00 11,9 9,1 7,0 19,1 19,3 7 4 12 7 NNE 1024,1 20 0 0,0
11.09.2019 05:00:00 11,8 8,6 7,0 19,1 19,3 3 2 8 4 NNE 1023,7 20 0 0,0
11.09.2019 04:00:00 12,8 8,9 7,7 19,1 19,3 5 3 13 7 N 1023,8 20 0 0,0
11.09.2019 03:00:00 13,6 8,8 11,7 19,1 19,4 9 5 16 9 NNE 1023,6 20 0 0,0
11.09.2019 02:00:00 14,0 7,3 12,0 19,1 19,3 9 5 16 9 N 1023,6 20 0 0,0
11.09.2019 01:00:00 14,4 6,7 12,2 19,1 19,3 8 4 14 8 N 1022,9 20 0 0,0
11.09.2019 00:00:00 14,7 6,8 12,4 19,1 19,3 8 4 14 8 N 1022,6 20 0 0,0
10.09.2019 23:00:00 16,3 6,7 14,6 19,1 19,3 10 5 18 10 N 1022,2 20 0 0,0
10.09.2019 22:00:00 17,5 6,7 15,8 19,1 19,4 10 6 18 10 N 1021,4 20 0 0,0
10.09.2019 21:00:00 19,0 6,5 17,3 19,1 19,4 10 5 18 10 N 1020,4 20 0 0,0
10.09.2019 20:00:00 21,0 6,1 19,9 19,1 19,4 10 6 30 16 N 1019,7 20 60 0,0
10.09.2019 19:00:00 22,5 5,0 22,9 19,2 19,4 18 10 33 18 NNE 1018,6 20 60 0,0
10.09.2019 18:00:00 22,9 4,9 25,0 19,2 19,4 19 10 35 19 NNE 1018,1 20 58 -
10.09.2019 17:00:00 22,9 5,8 24,1 19,2 19,4 20 11 36 20 NE 1017,7 20 52 0,0
10.09.2019 16:00:00 22,6 6,8 27,3 19,2 19,4 17 9 34 18 NNE 1017,6 20 60 0,0
10.09.2019 15:00:00 21,7 7,9 26,0 19,2 19,4 17 9 34 18 NE 1017,6 20 60 0,0
10.09.2019 14:00:00 20,3 8,3 24,8 19,2 19,4 21 12 37 20 NE 1017,4 20 60 0,0
10.09.2019 13:00:00 19,3 8,6 20,0 19,3 19,4 19 10 31 17 ENE 1016,9 20 41 0,0
10.09.2019 12:00:00 18,3 9,6 17,4 19,3 19,4 11 6 22 12 NE 1016,6 20 39 0,0
10.09.2019 11:00:00 16,5 9,4 16,6 19,3 19,4 13 7 22 12 ENE 1016,0 20 55 0,0
10.09.2019 10:00:00 14,5 10,7 12,9 19,3 19,5 14 8 27 14 ENE 1015,2 20 43 0,0
10.09.2019 09:00:00 12,7 10,2 12,0 19,3 19,4 14 8 24 13 ENE 1014,2 20 26 0,0
10.09.2019 08:00:00 11,9 10,5 11,4 19,3 19,5 10 6 18 10 ENE 1013,3 20 1 0,0
10.09.2019 07:00:00 12,0 10,9 11,5 19,3 19,5 11 6 17 9 NE 1012,2 19 0 0,0
10.09.2019 06:00:00 12,9 11,5 12,3 19,3 19,5 6 4 11 6 E 1011,6 20 0 0,0
10.09.2019 05:00:00 13,0 11,6 12,0 19,3 19,5 11 6 16 8 SSE 1011,2 20 0 0,0

tt = temperature
td = dewpoint
tt 5cm = temperature 5cm
tt -20cm = temperature -20cm
tt -100cm = temperature -100cm
ff = wind speed
fx = gusts
dd = wind direction
ppp = reduced air pressure
vv = visibility
sd = sunshine duration
rr = precipitation

Next stations